Location: Mountain View
(37.3861°N, 122.0839°W)
Time: 19:36:28
(UTC-07:00)

Envisat - Pass Details

Date: 19 May 2026
Orbit: 761 x 763 km, 98.4° (Epoch: 9 June)

Event Time Altitude Azimuth Distance (km) Brightness Sun altitude
Rises 04:22:39 0° 3° (N) 3,229 6.9 -16.3°
Reaches altitude 10° 04:25:05 10° 356° (N) 2,299 6.0 -15.9°
Maximum altitude 04:29:43 37° 290° (WNW) 1,165 3.7 -15.2°
Enters shadow 04:32:15 23° 238° (WSW) 1,591 4.0 -14.8°
